Weather Service Report


508 
ASUS43 KIND 202059
RWRIN 

WEATHER ROUNDUP FOR INDIANA
NATIONAL WEATHER SERVICE INDIANAPOLIS IN
500 PM EDT WED AUG 20 2014

NOTE: "FAIR" INDICATES FEW OR NO CLOUDS BELOW 12,000 FEET WITH NO
SIGNIFICANT WEATHER AND/OR OBSTRUCTIONS TO VISIBILITY.

* - STATION DOES NOT REPORT WEATHER SUCH AS PRECIPITATION OR FOG.

+ - STATION NOT QUALITY CONTROLLED BY THE NATIONAL WEATHER SERVICE.
    USE DATA WITH CAUTION...ESPECIALLY DEWPOINT AND RELATIVE
    HUMIDITY OBSERVATIONS.

INZ001>003-010>013-019-020-202200-
NORTHWEST INDIANA
  
CITY           SKY/WX    TMP DP  RH WIND       PRES   REMARKS
GARY /AIRPORT/ MOSUNNY   86  61  42 SW10      29.87F                  
KNOX *+        SUNNY     84  63  49 SW7       29.88F                  
MONTICELLO +   MOSUNNY   82  71  70 SW6       29.90F                  
VALPARAISO     MOSUNNY   85  62  46 SW12      29.90F                  

$$

LMZ046-743>745-202200-
SOUTHERN LAKE MICHIGAN
  
STATION/POSITION TIME  TEMP WIND        PRES
                       AIR  DIR/SP/G
                 (UTC) (F)  (DEG/KT/KT) (MB)
BURNS HARBOR     2000   82  260/ 10/ 18   N/A
MICHIGAN CITY    2000   78  230/  6/  8   N/A

$$

INZ004-005-014>016-021>024-202200-
NORTH CENTRAL INDIANA
  
CITY           SKY/WX    TMP DP  RH WIND       PRES   REMARKS
ELKHART        MOSUNNY   84  63  48 W12       29.91F                  
GOSHEN         MOSUNNY   83  68  60 W8        29.90F                  
SOUTH BEND     MOSUNNY   85  65  51 W13       29.90F                  
WARSAW +       MOSUNNY   82  66  57 W9G18     29.91F                  

$$

INZ006>009-017-018-025>027-202200-
NORTHEAST INDIANA
  
CITY           SKY/WX    TMP DP  RH WIND       PRES   REMARKS
ANGOLA *+      MOSUNNY   84  81  89 W8        29.91S HX  98           
FORT WAYNE     MOSUNNY   83  65  54 W14       29.92S                  

$$

INZ028-029-035-036-043>045-051>053-202200-
WEST CENTRAL INDIANA
  
CITY           SKY/WX    TMP DP  RH WIND       PRES   REMARKS
GREENCASTLE +  CLOUDY    73  70  88 CALM      29.94F                  
LAFAYETTE      PTSUNNY   79  67  66 W8        29.90F                  
TERRE HAUTE    CLOUDY    75  68  78 S6        29.93F                  

$$

INZ030>032-037>040-046>048-054>057-064-065-202200-
CENTRAL INDIANA
  
CITY           SKY/WX    TMP DP  RH WIND       PRES   REMARKS
COLUMBUS       SUNNY     75  70  83 CALM      29.94F                  
FRANKFORT +    PTSUNNY   81  67  63 SW10      29.94F                  
INDIANAPOLIS   CLOUDY    77  65  66 W6        29.94S                  
-EAGLE CREEK   CLOUDY    77  65  66 CALM      29.93S                  
KOKOMO *+      MOSUNNY   84  68  58 W10       29.92S                  
MT COMFORT *+  CLOUDY    79  59  50 W8        29.95R                  
SHELBYVILLE    CLOUDY    79  65  62 NW3       29.95F                  

$$

INZ033-034-041-042-049-050-058-059-202200-
EAST CENTRAL INDIANA
  
CITY           SKY/WX    TMP DP  RH WIND       PRES   REMARKS
MUNCIE         MOSUNNY   84  67  56 W5        29.93F                  

$$

INZ060-061-067>069-081>083-085>088-202200-
SOUTHWEST INDIANA
  
CITY           SKY/WX    TMP DP  RH WIND       PRES   REMARKS
EVANSVILLE     PTSUNNY   83  67  58 N7        29.97F                  

$$

INZ062-063-066-070>080-084-089>092-202200-
SOUTH CENTRAL AND SOUTHEAST INDIANA
  
CITY           SKY/WX    TMP DP  RH WIND       PRES   REMARKS
BLOOMINGTON    CLOUDY    77  69  76 W7        29.95F                  

$$


Return to Home page


Western Regional Climate Center, wrcc@dri.edu